Home   Weather   Olympia   Past weeks

Flag for USA Past Weather in Olympia, Washington, USA — Yesterday and Last 2 Weeks

Now
43 °F

Mostly cloudy.


Feels Like: 36 °F
Forecast: 39 / 46 °F
Wind: 15 mph from South

Location: Olympia Airport

Current Time: Feb 19, 2017 at 1:06:37 pm

Latest Report: Feb 19, 2017 at 11:54 am


Visibility: 10 mi

Pressure: 29.48 "Hg

Humidity: 89%

Dew Point: 40 °F

Location of OlympiaLocation

Past Weather in Olympia — Graph

°F

Olympia Temperature Yesterday

Maximum temperature yesterday: 46 °F (at 3:54 pm)
Minimum temperature yesterday: 38 °F (at 12:54 am)
Average temperature yesterday: 42 °F

High & Low Weather Summary for the Past Weeks

 TemperatureHumidityPressure
High56 °F (Feb 9, 11:59 am)100% (Feb 4, 2:54 pm)30.54 "Hg (Feb 4, 2:54 pm)
Low23 °F (Feb 7, 1:54 am)45% (Feb 14, 1:54 pm)29.24 "Hg (Feb 5, 10:22 pm)
Average40 °F94%29.79 "Hg
* Reported Feb 4 11:21 am — Feb 19 11:54 am, Olympia, Weather by CustomWeather, © 2017

Note: Actual official high and low records may vary slightly from our data, if they occured in-between our weather recording intervals... More about our weather records

Advertising

Olympia Weather History for the Previous 24 Hours

Scroll right to see more
 ConditionsComfort  
Time TempWeatherWind HumidityBarometerVisibility
11:54 am
Sun, Feb 19
43 °FMostly cloudy.15 mph89%29.48 "Hg10 mi
11:35 am43 °FMostly cloudy.18 mph89%29.47 "Hg10 mi
10:54 am42 °FLight rain. Fog.14 mph92%29.46 "Hg6 mi
9:54 am43 °FLight rain. Broken clouds.15 mph89%29.45 "Hg10 mi
8:54 am43 °FLight rain. Broken clouds.10 mph89%29.43 "Hg10 mi
7:54 am42 °FLight rain. More clouds than sun.9 mph92%29.42 "Hg10 mi
6:54 am42 °FLight rain. Overcast.13 mph92%29.40 "Hg8 mi
6:36 am42 °FLight rain. Mostly cloudy.12 mph92%29.40 "Hg10 mi
5:54 am40 °FLight rain. Fog.No wind100%29.39 "Hg5 mi
4:54 am39 °FMostly cloudy.No wind100%29.38 "Hg8 mi
3:54 am41 °FOvercast.No wind100%29.39 "Hg10 mi
2:54 am41 °FLight rain. Mostly cloudy.No wind100%29.41 "Hg9 mi
1:54 am40 °FLight rain. Fog.No wind100%29.42 "Hg4 mi
1:21 am40 °FLight rain. Fog.No wind100%29.42 "Hg5 mi
1:03 am40 °FLight rain. Fog.No wind100%29.42 "Hg6 mi
12:54 am40 °FLight rain. Fog.No wind100%29.42 "Hg2 mi
12:40 am40 °FLight rain. Fog.No wind100%29.43 "Hg3 mi
12:08 am38 °FFog.No wind100%29.43 "Hg1 mi
11:37 pm
Sat, Feb 18
39 °FFog.No wind100%29.44 "Hg2 mi
11:19 pm39 °FFog.No wind100%29.44 "Hg3 mi
10:54 pm40 °FClear.No wind100%29.44 "Hg10 mi
9:54 pm41 °FPassing clouds.No wind100%29.44 "Hg10 mi
8:54 pm41 °FOvercast.3 mph100%29.44 "Hg10 mi
7:54 pm42 °FPartly cloudy.5 mph96%29.43 "Hg10 mi
6:54 pm44 °FOvercast.7 mph93%29.43 "Hg10 mi
5:54 pm44 °FOvercast.7 mph100%29.42 "Hg10 mi
4:54 pm45 °FCloudy.6 mph100%29.42 "Hg7 mi
3:54 pm46 °FLight rain. Broken clouds.3 mph96%29.42 "Hg7 mi
2:54 pm45 °FLow clouds.3 mph97%29.41 "Hg10 mi
1:54 pm45 °FMostly cloudy.5 mph97%29.42 "Hg8 mi
Weather by CustomWeather, © 2017

See weather overviewHow to use our weather pages